Location: Mercogliano
(40.9167°N, 14.7333°E)
Time: 03:04:10
(UTC+00:00)

X-37B - Pass Details

Date: 01 December 2020
Orbit: 383 x 391 km, 45.1° (Epoch: 22 January)

Event Time Altitude Azimuth Distance (km) Brightness Sun altitude
Rises 17:21:06 0° 273° (W) 2,258 5.9 -19.8°
Reaches altitude 10° 17:23:15 10° 282° (WNW) 1,407 4.4 -20.2°
Enters shadow 17:25:49 37° 331° (NNW) 620 1.7 -20.7°
